Location: Alladorf
(49.9620°N, 11.3790°E)
Time: 19:26:14
(UTC+00:00)

Cosmos 1862 - Pass Details

Date: 29 November 2020
Orbit: 537 x 556 km, 82.5° (Epoch: 25 January)

Event Time Altitude Azimuth Distance (km) Brightness Sun altitude
Rises 05:23:17 0° 202° (SSW) 2,726 6.8 -13.2°
Reaches altitude 10° 05:25:30 10° 208° (SSW) 1,837 5.9 -12.8°
Maximum altitude 05:29:26 50° 284° (WNW) 718 3.5 -12.2°
Drops below altitude 10° 05:33:25 10° 1° (N) 1,853 5.8 -11.6°
Sets 05:35:39 0° 6° (N) 2,752 6.7 -11.3°
